Hill City, KS

12:16 PM CST on February 20, 2018 (GMT -0600)
Hill City Municipal

Weather History for KHLC - September, 2013

Change the Weather History Date:

Monday, September 23, 2013

  Actual Average Record
Temperature  
Mean Temperature 69 °F 64 °F  
Max Temperature 80 °F 78 °F 99 °F (1938)
Min Temperature 58 °F 50 °F 32 °F (1989)
Cooling Degree Days 3    
Growing Degree Days 18 (Base 50)    
Moisture  
Dew Point 48 °F    
Average Humidity 54    
Maximum Humidity 72    
Minimum Humidity 30    
Precipitation  
Precipitation T in 0.06 in 0.44 in (2014)
Month to date precipitation 1.50 1.49  
Year to date precipitation 14.44 19.37  
Sea Level Pressure  
Sea Level Pressure 29.60 in    
Wind  
Wind Speed 15 mph (SSW)    
Max Wind Speed 31 mph    
Max Gust Speed 46 mph    
Visibility 10 miles    
Events      
T = Trace of Precipitation, MM = Missing Value Source: NWS Daily Summary

Daily Weather History Graph

Daily Weather History Graph

Search for Another Location

Airport or City:

Trip Planner

Search our weather history database for the weather conditions in past years. The results will help you decide how hot, cold, wet, or windy it might be!

Date:

Astronomy

Sep. 23, 2013 Rise Set
Actual Time 7:28 AM CDT 7:34 PM CDT
Civil Twilight 7:01 AM CDT 8:01 PM CDT
Nautical Twilight 6:30 AM CDT 8:32 PM CDT
Astronomical Twilight 5:58 AM CDT 9:03 PM CDT
Moon 10:09 PM CDT (9/23) 11:47 AM CDT (9/23)
Length of Visible Light 12h 59m
Length of Day
12h 06m
Waning Gibbous, 81% of the Moon is Illuminated
Sep 23
Waning Gibbous
Sep 26
Last Quarter
Oct 4
New
Oct 11
First Quarter
Oct 18
Full

Hourly Weather History & Observations

Time (CDT) Temp. Dew Point Humidity Pressure Visibility Wind Dir Wind Speed Gust Speed Precip Events Conditions
12:53 AM 64.0 °F 48.0 °F 56% 29.66 in 10.0 mi SSE 10.4 mph 17.3 mph N/A   Clear
1:53 AM 63.0 °F 48.0 °F 58% 29.64 in 10.0 mi SSE 11.5 mph - N/A   Clear
2:53 AM 63.0 °F 48.0 °F 58% 29.61 in 10.0 mi South 15.0 mph 24.2 mph N/A   Clear
3:53 AM 62.1 °F 48.0 °F 60% 29.60 in 10.0 mi South 13.8 mph 21.9 mph N/A   Clear
4:53 AM 61.0 °F 46.9 °F 60% 29.60 in 10.0 mi SSE 15.0 mph 23.0 mph N/A   Clear
5:53 AM 60.1 °F 46.9 °F 62% 29.59 in 10.0 mi SSE 13.8 mph 23.0 mph N/A   Clear
6:53 AM 57.9 °F 46.9 °F 67% 29.58 in 10.0 mi SSE 9.2 mph 16.1 mph N/A   Clear
7:53 AM 60.1 °F 46.9 °F 62% 29.61 in 10.0 mi South 13.8 mph - N/A   Scattered Clouds
8:53 AM 59.0 °F 48.9 °F 69% 29.60 in 10.0 mi South 11.5 mph 17.3 mph 0.00 in   Overcast
9:53 AM 61.0 °F 50.0 °F 67% 29.57 in 10.0 mi SSE 16.1 mph 26.5 mph 0.00 in   Mostly Cloudy
10:53 AM 66.9 °F 50.0 °F 54% 29.55 in 10.0 mi SSE 23.0 mph 33.4 mph N/A   Clear
11:53 AM 73.9 °F 46.9 °F 38% 29.52 in 10.0 mi South 21.9 mph 40.3 mph N/A   Clear
12:53 PM 77.0 °F 46.9 °F 34% 29.48 in 10.0 mi South 28.8 mph 41.4 mph N/A   Clear
1:53 PM 79.0 °F 45.0 °F 30% 29.46 in 10.0 mi South 31.1 mph 46.0 mph N/A   Partly Cloudy
2:53 PM 77.0 °F 46.0 °F 33% 29.45 in 10.0 mi SSW 18.4 mph 41.4 mph N/A   Mostly Cloudy
3:53 PM 77.0 °F 48.0 °F 36% 29.47 in 10.0 mi SSW 16.1 mph 28.8 mph N/A   Overcast
4:53 PM 77.0 °F 48.0 °F 36% 29.50 in 10.0 mi WNW 16.1 mph 27.6 mph N/A   Scattered Clouds
5:53 PM 73.0 °F 48.9 °F 42% 29.56 in 10.0 mi WNW 16.1 mph 25.3 mph N/A   Clear
6:53 PM 71.1 °F 48.9 °F 45% 29.61 in 10.0 mi WNW 16.1 mph 24.2 mph N/A   Clear
7:53 PM 66.0 °F 52.0 °F 60% 29.67 in 10.0 mi WNW 13.8 mph 21.9 mph N/A   Clear
8:53 PM 62.1 °F 51.1 °F 67% 29.70 in 10.0 mi West 9.2 mph - N/A   Clear
9:53 PM 62.1 °F 51.1 °F 67% 29.73 in 10.0 mi West 15.0 mph 20.7 mph N/A   Clear
10:53 PM 61.0 °F 51.1 °F 70% 29.76 in 10.0 mi WNW 13.8 mph 24.2 mph N/A   Clear
11:53 PM 60.1 °F 51.1 °F 72% 29.78 in 10.0 mi WNW 16.1 mph 24.2 mph N/A   Partly Cloudy